TimeEST,TemperatureF,Dew PointF,Humidity,Sea Level PressureIn,VisibilityMPH,Wind Direction,Wind SpeedMPH,Gust SpeedMPH,PrecipitationIn,Events,Conditions,WindDirDegrees,DateUTC
12:52 AM,28.0,24.1,85,30.20,10.0,Calm,Calm,-,N/A,,Overcast,0,2012-11-21 05:52:00
1:52 AM,28.0,24.1,85,30.20,10.0,Calm,Calm,-,N/A,,Mostly Cloudy,0,2012-11-21 06:52:00
2:52 AM,27.0,24.1,89,30.20,10.0,Calm,Calm,-,N/A,,Mostly Cloudy,0,2012-11-21 07:52:00
3:52 AM,27.0,24.1,89,30.22,10.0,Calm,Calm,-,N/A,,Mostly Cloudy,0,2012-11-21 08:52:00
4:52 AM,25.0,23.0,92,30.24,10.0,Calm,Calm,-,N/A,,Clear,0,2012-11-21 09:52:00
5:52 AM,25.0,21.0,85,30.25,10.0,Calm,Calm,-,N/A,,Clear,0,2012-11-21 10:52:00
6:52 AM,21.9,19.0,89,30.28,10.0,Calm,Calm,-,N/A,,Clear,0,2012-11-21 11:52:00
7:52 AM,23.0,19.9,88,30.30,10.0,Calm,Calm,-,N/A,,Clear,0,2012-11-21 12:52:00
8:52 AM,28.9,24.1,82,30.30,10.0,Calm,Calm,-,N/A,,Clear,0,2012-11-21 13:52:00
9:52 AM,37.9,26.1,62,30.28,10.0,Calm,Calm,-,N/A,,Clear,0,2012-11-21 14:52:00
11:52 AM,48.0,21.0,34,30.22,10.0,Calm,Calm,-,N/A,,Clear,0,2012-11-21 16:52:00
12:52 PM,50.0,18.0,28,30.21,10.0,Calm,Calm,-,N/A,,Clear,0,2012-11-21 17:52:00
1:52 PM,50.0,19.9,31,30.22,10.0,Calm,Calm,-,N/A,,Clear,0,2012-11-21 18:52:00
2:52 PM,50.0,21.0,32,30.22,10.0,Calm,Calm,-,N/A,,Clear,0,2012-11-21 19:52:00
3:52 PM,39.9,23.0,51,30.24,10.0,Calm,Calm,-,N/A,,Clear,0,2012-11-21 20:52:00
4:52 PM,33.1,23.0,66,30.26,10.0,Calm,Calm,-,N/A,,Clear,0,2012-11-21 21:52:00
5:52 PM,28.9,21.9,75,30.27,10.0,Calm,Calm,-,N/A,,Clear,0,2012-11-21 22:52:00
6:52 PM,27.0,21.0,78,30.29,10.0,Calm,Calm,-,N/A,,Clear,0,2012-11-21 23:52:00
7:52 PM,27.0,21.0,78,30.28,10.0,Calm,Calm,-,N/A,,Clear,0,2012-11-22 00:52:00
8:52 PM,26.1,21.0,81,30.28,10.0,Calm,Calm,-,N/A,,Clear,0,2012-11-22 01:52:00
9:52 PM,24.1,19.9,84,30.28,10.0,Calm,Calm,-,N/A,,Clear,0,2012-11-22 02:52:00
10:52 PM,23.0,19.9,88,30.28,10.0,Calm,Calm,-,N/A,,Clear,0,2012-11-22 03:52:00
11:52 PM,21.9,18.0,85,30.28,10.0,Calm,Calm,-,N/A,,Clear,0,2012-11-22 04:52:00